Location: ?
(35.4554°N, 139.3092°E)
Time: 22:05:35
(UTC+00:00)

Cosmos 2082 Rocket - Pass Details

Date: 21 April 2021
Orbit: 835 x 852 km, 71.0° (Epoch: 10 May)

Event Time Altitude Azimuth Distance (km) Brightness Sun altitude
Rises 16:17:22 0° 347° (NNW) 3,389 5.9 -37.3°
Reaches altitude 10° 16:20:01 10° 356° (N) 2,451 5.1 -37.0°
Enters shadow 16:24:11 34° 40° (NE) 1,359 3.6 -36.6°
